Oxford, MS

10:57 PM CDT on September 15, 2019 (GMT -0500)
University-Oxford

Weather History for KUOX - July, 2019

Change the Weather History Date:

Tuesday, July 23, 2019

  Actual Average Record
Temperature  
Mean Temperature 72 °F -  
Max Temperature 80 °F 90 °F 104 °F (1952)
Min Temperature 64 °F 68 °F 56 °F (1947)
Cooling Degree Days 7    
Growing Degree Days 22 (Base 50)    
Moisture  
Dew Point 61 °F    
Average Humidity 73    
Maximum Humidity 100    
Minimum Humidity 41    
Precipitation  
Precipitation 0.00 in - - ()
Sea Level Pressure  
Sea Level Pressure 30.05 in    
Wind  
Wind Speed 8 mph (North)    
Max Wind Speed 17 mph    
Max Gust Speed 25 mph    
Visibility 9 miles    
Events      
Averages and records for this station are not official NWS values.
T = Trace of Precipitation, MM = Missing Value Source: NWS Daily Summary

Daily Weather History Graph

Daily Weather History Graph

Search for Another Location

Airport or City:

Astronomy

Jul. 23, 2019 Rise Set
Actual Time 6:02 AM CDT 8:06 PM CDT
Civil Twilight 5:34 AM CDT 8:34 PM CDT
Nautical Twilight 4:59 AM CDT 9:09 PM CDT
Astronomical Twilight 4:22 AM CDT 9:45 PM CDT
Moon No Moon Rise 12:00 PM CDT (7/23)
Length of Visible Light 15h 00m
Length of Day
14h 04m
Waning Gibbous, 63% of the Moon is Illuminated
Jul 23
Waning Gibbous
Jul 24
Last Quarter
Jul 31
New
Aug 7
First Quarter
Aug 15
Full

Hourly Weather History & Observations

Time (CDT) Temp. Heat Index Dew Point Humidity Pressure Visibility Wind Dir Wind Speed Gust Speed Precip Events Conditions
12:15 AM 71.6 °F - 71.6 °F 100% 30.00 in 8.0 mi North 8.1 mph - N/A   Light Drizzle
12:35 AM 69.8 °F - 69.8 °F 100% 30.00 in 5.0 mi Variable 6.9 mph 12.7 mph N/A   Mostly Cloudy
12:55 AM 69.8 °F - 69.8 °F 100% 30.00 in 9.0 mi North 5.8 mph 13.8 mph N/A   Mostly Cloudy
1:15 AM 69.8 °F - 69.8 °F 100% 29.99 in 8.0 mi NNE 8.1 mph - N/A   Overcast
1:35 AM 69.8 °F - 69.8 °F 100% 29.99 in 10.0 mi North 6.9 mph - N/A   Overcast
1:55 AM 69.8 °F - 69.8 °F 100% 29.99 in 10.0 mi Variable 5.8 mph - N/A   Overcast
2:15 AM 69.8 °F - 68.0 °F 94% 29.99 in 10.0 mi North 8.1 mph - N/A   Overcast
2:35 AM 69.8 °F - 68.0 °F 94% 29.99 in 10.0 mi North 6.9 mph 15.0 mph N/A   Overcast
2:55 AM 69.8 °F - 68.0 °F 94% 29.99 in 8.0 mi NNW 10.4 mph - N/A   Overcast
3:15 AM 68.0 °F - 68.0 °F 100% 30.00 in 10.0 mi Variable 5.8 mph 12.7 mph N/A   Overcast
3:35 AM 68.0 °F - 66.2 °F 94% 30.00 in 9.0 mi North 8.1 mph - N/A   Mostly Cloudy
3:55 AM 68.0 °F - 66.2 °F 94% 30.01 in 9.0 mi North 6.9 mph - N/A   Scattered Clouds
4:15 AM 66.2 °F - 66.2 °F 100% 30.01 in 9.0 mi North 8.1 mph - N/A   Clear
4:35 AM 66.2 °F - 66.2 °F 100% 30.01 in 9.0 mi North 6.9 mph - N/A   Clear
4:55 AM 66.2 °F - 64.4 °F 94% 30.01 in 8.0 mi North 6.9 mph - N/A   Clear
5:15 AM 66.2 °F - 64.4 °F 94% 30.02 in 8.0 mi North 5.8 mph - N/A   Clear
5:35 AM 66.2 °F - 64.4 °F 94% 30.03 in 9.0 mi North 4.6 mph - N/A   Clear
5:55 AM 66.2 °F - 64.4 °F 94% 30.03 in 8.0 mi North 5.8 mph - N/A   Clear
6:15 AM 64.4 °F - 64.4 °F 100% 30.04 in 7.0 mi North 6.9 mph - N/A   Clear
6:35 AM 66.2 °F - 64.4 °F 94% 30.04 in 6.0 mi NNE 6.9 mph - N/A   Clear
6:55 AM 66.2 °F - 64.4 °F 94% 30.05 in 7.0 mi NNE 8.1 mph - N/A   Clear
7:15 AM 66.2 °F - 64.4 °F 94% 30.05 in 6.0 mi NNE 8.1 mph - N/A   Clear
7:35 AM 68.0 °F - 66.2 °F 94% 30.05 in 8.0 mi Variable 5.8 mph 13.8 mph N/A   Clear
7:55 AM 68.0 °F - 66.2 °F 94% 30.06 in 8.0 mi NNE 6.9 mph 13.8 mph N/A   Partly Cloudy
8:15 AM 69.8 °F - 64.4 °F 83% 30.06 in 7.0 mi North 9.2 mph - N/A   Partly Cloudy
8:35 AM 69.8 °F - 64.4 °F 83% 30.07 in 9.0 mi North 12.7 mph - N/A   Clear
8:55 AM 71.6 °F - 64.4 °F 78% 30.07 in 7.0 mi NNE 11.5 mph - N/A   Clear
9:15 AM 71.6 °F - 62.6 °F 73% 30.07 in 8.0 mi North 8.1 mph 13.8 mph N/A   Clear
9:35 AM 73.4 °F - 59.0 °F 61% 30.07 in 9.0 mi NNE 13.8 mph - N/A   Clear
9:55 AM 73.4 °F - 59.0 °F 61% 30.07 in 9.0 mi North 17.3 mph 23.0 mph N/A   Clear
10:15 AM 73.4 °F - 59.0 °F 61% 30.08 in 9.0 mi North 9.2 mph 18.4 mph N/A   Clear
10:35 AM 75.2 °F - 55.4 °F 50% 30.08 in 9.0 mi North 17.3 mph 24.2 mph N/A   Clear
10:55 AM 75.2 °F - 53.6 °F 47% 30.08 in 9.0 mi North 13.8 mph 21.9 mph N/A   Clear
11:15 AM 75.2 °F - 55.4 °F 50% 30.08 in 9.0 mi North 10.4 mph - N/A   Clear
11:35 AM 75.2 °F - 53.6 °F 47% 30.08 in 9.0 mi NNE 12.7 mph 18.4 mph N/A   Clear
11:55 AM 75.2 °F - 53.6 °F 47% 30.08 in 9.0 mi North 9.2 mph 17.3 mph N/A   Clear
12:15 PM 77.0 °F - 51.8 °F 41% 30.08 in 9.0 mi NNE 11.5 mph 18.4 mph N/A   Clear
12:35 PM 77.0 °F - 51.8 °F 41% 30.07 in 9.0 mi North 8.1 mph 17.3 mph N/A   Clear
12:55 PM 77.0 °F - 53.6 °F 44% 30.07 in 9.0 mi North 11.5 mph 18.4 mph N/A   Clear
1:15 PM 78.8 °F - 53.6 °F 42% 30.07 in 10.0 mi NNW 9.2 mph 16.1 mph N/A   Clear
1:35 PM 78.8 °F - 55.4 °F 44% 30.07 in 10.0 mi North 10.4 mph - N/A   Clear
1:55 PM 78.8 °F - 55.4 °F 44% 30.06 in 9.0 mi North 13.8 mph 21.9 mph N/A   Clear
2:15 PM 78.8 °F - 57.2 °F 47% 30.06 in 9.0 mi North 13.8 mph 20.7 mph N/A   Clear
2:35 PM 78.8 °F - 55.4 °F 44% 30.06 in 10.0 mi North 11.5 mph 20.7 mph N/A   Clear
2:55 PM 80.6 °F 81.1 °F 59.0 °F 48% 30.05 in 10.0 mi North 8.1 mph 25.3 mph N/A   Clear
3:15 PM 78.8 °F - 57.2 °F 47% 30.05 in 10.0 mi NNE 13.8 mph - N/A   Clear
3:55 PM 80.6 °F 81.1 °F 59.0 °F 48% 30.04 in 9.0 mi North 13.8 mph - N/A   Clear
4:15 PM 80.6 °F 81.1 °F 59.0 °F 48% 30.04 in 10.0 mi NNW 11.5 mph - N/A   Clear
4:35 PM 80.6 °F 81.1 °F 59.0 °F 48% 30.04 in 9.0 mi NNE 11.5 mph 18.4 mph N/A   Partly Cloudy
4:55 PM 78.8 °F - 57.2 °F 47% 30.04 in 9.0 mi NE 11.5 mph 19.6 mph N/A   Partly Cloudy
5:15 PM 78.8 °F - 59.0 °F 51% 30.04 in 9.0 mi NNE 11.5 mph 17.3 mph N/A   Clear
5:35 PM 78.8 °F - 59.0 °F 51% 30.04 in 9.0 mi North 11.5 mph 21.9 mph N/A   Clear
5:55 PM 78.8 °F - 59.0 °F 51% 30.04 in 10.0 mi NNE 10.4 mph - N/A   Clear
6:15 PM 77.0 °F - 59.0 °F 54% 30.04 in 9.0 mi North 11.5 mph 18.4 mph N/A   Clear
6:35 PM 77.0 °F - 59.0 °F 54% 30.04 in 9.0 mi North 10.4 mph 18.4 mph N/A   Partly Cloudy
6:55 PM 75.2 °F - 59.0 °F 57% 30.05 in 10.0 mi North 9.2 mph - N/A   Scattered Clouds
7:15 PM 73.4 °F - 59.0 °F 61% 30.05 in 10.0 mi North 8.1 mph - N/A   Scattered Clouds
7:35 PM 73.4 °F - 59.0 °F 61% 30.06 in 10.0 mi North 9.2 mph - N/A   Partly Cloudy
7:55 PM 71.6 °F - 59.0 °F 64% 30.06 in 10.0 mi North 5.8 mph - N/A   Clear
8:15 PM 69.8 °F - 60.8 °F 73% 30.07 in 10.0 mi North 5.8 mph - N/A   Clear
8:35 PM 69.8 °F - 60.8 °F 73% 30.07 in 10.0 mi North 3.5 mph - N/A   Partly Cloudy
8:55 PM 68.0 °F - 60.8 °F 78% 30.08 in 10.0 mi Calm Calm - N/A   Scattered Clouds
9:15 PM 68.0 °F - 60.8 °F 78% 30.08 in 10.0 mi North 4.6 mph - N/A   Mostly Cloudy
9:35 PM 68.0 °F - 60.8 °F 78% 30.08 in 10.0 mi NNE 3.5 mph - N/A   Mostly Cloudy
9:55 PM 68.0 °F - 60.8 °F 78% 30.09 in 10.0 mi North 3.5 mph - N/A   Mostly Cloudy
10:15 PM 68.0 °F - 60.8 °F 78% 30.09 in 10.0 mi Calm Calm - N/A   Mostly Cloudy
10:35 PM 66.2 °F - 60.8 °F 83% 30.09 in 10.0 mi North 3.5 mph - N/A   Partly Cloudy
10:55 PM 66.2 °F - 60.8 °F 83% 30.09 in 10.0 mi NNE 3.5 mph - N/A   Clear
11:15 PM 66.2 °F - 60.8 °F 83% 30.10 in 10.0 mi North 3.5 mph - N/A   Clear
11:35 PM 64.4 °F - 60.8 °F 88% 30.10 in 10.0 mi NNE 3.5 mph - N/A   Clear
11:55 PM 64.4 °F - 60.8 °F 88% 30.10 in 10.0 mi Calm Calm - N/A   Clear